Loco Hills, New Mexico
Current Conditions -  °F | °C
As of 4:53 AM on Friday 24 Oct 2014 (Local Time) from KCNM Reporting Station
Clear Clear  
Wind Chill: 57°   Ceiling: Unl
Heat Index: 57°   Visibility: 9mi
Dew Point: 54°   Wind: 3mph
Humidity: 89%   Direction: 360°N
Pressure: 30.14"   Gusts: NA
Location:  32.82°N, 103.98°W
Report Text: KCNM 241053Z AUTO 36003KT 9SM CLR 14/12 A3014 RMK AO2 SLP165 T01390122
Loading
Personal Weather Stations






























Interactive Weather Map
Tropical Storm Tracking
New forecast layout! Learn more

10-Day Weather Forecast

Advertisements
Track Severe Weather on mobile